Weather in Bora-Tayga

Russia / Tyva Republic     51°24′15″N   91°08′47″E
temp.,
°C
wind,
m/s
gust,
m/s
humid.,
%
clouds,
%
prec.,
mm/h
press.,
hPa
HPBL,
m
17 september, fri
fri1701:00+10nnw2255100 0.0 101212
04:00+9nw1157100 0.0 101211
07:00+8nw116077 0.0 101310
10:00+13se21455 0.0 1012386
13:00+17se323310 0.0 10101106
16:00+19se22285 0.0 10081608
19:00+14n2241100 0.0 100912
22:00+11nnw22535 0.0 100913
18 september, sat
sat1801:00+10nnw225514 0.0 100911
04:00+9nnw22595 0.0 100811
07:00+8nnw226133 0.0 100911
10:00+13sse2147100 0.0 1009331
13:00+15e2143100 0.0 1007440
16:00+18e22319 0.0 1006901
19:00+14sw114296 0.0 100811
22:00+11nnw32548 0.0 101019
19 september, sun
sun1901:00+9nnw226141 0.0 101112
04:00+9nnw22625 0.0 101012
07:00+8nnw22635 0.0 101011
10:00+13ese214887 0.0 1009396
13:00+17ese2137100 0.0 1007572
16:00+19e223267 0.0 1004619
19:00+14n334626 0.0 100318
22:00+13wnw214793 0.0 100311
20 september, mon
mon2001:00+11nnw225154 0.0 100313
04:00+10nnw335770 0.0 100124
07:00+8nw437392 0.0 100049
10:00+12wnw3562100 0.8 10041184
13:00+12nnw454223 1.2 10071698
16:00+12nnw443410 0.0 10081662
19:00+7nnw334915 0.0 101039
22:00+3nnw336724 0.0 101364
21 september, tue
tue2101:00+4nnw336399 0.0 1013128
04:00+2nw227429 0.0 101442
07:00+2n2387100 0.4 1015155
10:00+4nnw346592 0.3 1016956
13:00+7nnw453283 0.4 10152019
16:00+5nnw563385 0.0 10191637
19:00+1nnw334638 0.0 102439
22:00−2nw33590 0.0 102744